Time,TemperatureF,DewpointF,PressureIn,WindDirection,WindDirectionDegrees,WindSpeedMPH,WindSpeedGustMPH,Humidity,HourlyPrecipIn,Conditions,Clouds,dailyrainin,SoftwareType,DateUTC
2013-11-30 00:22:00,32.0,29.0,-100.00,WSW,245,9.0,12.0,88,0.00,,,-99.99,,2013-11-30 06:22:00,
2013-11-30 00:42:00,31.0,28.0,-100.00,WSW,245,9.0,11.0,90,0.00,,,-99.99,,2013-11-30 06:42:00,
2013-11-30 01:21:00,31.0,29.0,-100.00,WSW,250,6.0,9.0,91,0.00,,,-99.99,,2013-11-30 07:21:00,
2013-11-30 01:42:00,30.0,27.0,-100.00,SW,235,8.0,9.0,91,0.00,,,-99.99,,2013-11-30 07:42:00,
2013-11-30 02:22:00,30.0,28.0,-100.00,WSW,245,9.0,11.0,91,0.00,,,-99.99,,2013-11-30 08:22:00,
2013-11-30 02:42:00,30.0,28.0,-100.00,WSW,250,9.0,11.0,91,0.00,,,-99.99,,2013-11-30 08:42:00,
2013-11-30 03:21:00,28.0,27.0,-100.00,WSW,245,9.0,11.0,93,0.00,,,-99.99,,2013-11-30 09:21:00,
2013-11-30 03:43:00,28.0,27.0,-100.00,WSW,250,10.0,12.0,94,0.00,,,-99.99,,2013-11-30 09:43:00,
2013-11-30 04:23:00,27.0,26.0,-100.00,WSW,250,11.0,12.0,95,0.00,,,-99.99,,2013-11-30 10:23:00,
2013-11-30 04:42:00,28.0,26.0,-100.00,WSW,250,11.0,13.0,95,0.00,,,-99.99,,2013-11-30 10:42:00,
2013-11-30 05:42:00,25.0,25.0,-100.00,WSW,250,7.0,9.0,98,0.00,,,-99.99,,2013-11-30 11:42:00,
2013-11-30 06:42:00,23.0,23.0,-100.00,WSW,240,4.0,6.0,99,0.00,,,-99.99,,2013-11-30 12:42:00,
2013-11-30 08:42:00,23.0,23.0,-100.00,WSW,250,0.0,0.0,99,0.00,,,-99.99,,2013-11-30 14:42:00,
2013-11-30 09:21:00,28.0,28.0,-100.00,SW,235,3.0,4.0,99,0.00,,,-99.99,,2013-11-30 15:21:00,
2013-11-30 09:43:00,31.0,30.0,-100.00,WSW,240,3.0,4.0,94,0.00,,,-99.99,,2013-11-30 15:43:00,
2013-11-30 10:23:00,36.0,32.0,-100.00,SW,225,2.0,4.0,84,0.00,,,-99.99,,2013-11-30 16:23:00,
2013-11-30 11:22:00,42.0,33.0,-100.00,North,5,4.0,6.0,72,0.00,,,-99.99,,2013-11-30 17:22:00,
2013-11-30 11:42:00,43.0,34.0,-100.00,North,5,5.0,7.0,69,0.00,,,-99.99,,2013-11-30 17:42:00,
2013-11-30 14:42:00,51.0,33.0,-100.00,North,5,8.0,12.0,49,0.00,,,-99.99,,2013-11-30 20:42:00,
2013-11-30 15:43:00,51.0,33.0,-100.00,NNE,20,7.0,11.0,49,0.00,,,-99.99,,2013-11-30 21:43:00,
2013-11-30 16:23:00,49.0,32.0,-100.00,NNE,25,10.0,12.0,51,0.00,,,-99.99,,2013-11-30 22:23:00,
2013-11-30 16:42:00,46.0,31.0,-100.00,NNE,15,4.0,9.0,54,0.00,,,-99.99,,2013-11-30 22:42:00,
2013-11-30 19:12:00,27.0,23.0,-100.00,NE,40,2.0,4.0,82,0.00,,,-99.99,,2013-12-01 01:12:00,
2013-11-30 20:21:00,28.0,26.0,-100.00,NNE,20,0.0,3.0,89,0.00,,,-99.99,,2013-12-01 02:21:00,
2013-11-30 20:42:00,27.0,24.0,-100.00,NNW,345,1.0,2.0,90,0.00,,,-99.99,,2013-12-01 02:42:00,
2013-11-30 21:21:00,28.0,26.0,-100.00,NNW,330,0.0,2.0,91,0.00,,,-99.99,,2013-12-01 03:21:00,
2013-11-30 23:12:00,28.0,27.0,-100.00,NE,35,2.0,2.0,93,0.00,,,-99.99,,2013-12-01 05:12:00,